Piney Island, NC

1:44 AM EDT on August 19, 2017 (GMT -0400)
Piney Island

Weather History for KNBT - February, 2012

Change the Weather History Date:

Wednesday, February 15, 2012

  Actual Average (KMRH) Record (KMRH)
Temperature  
Mean Temperature 54 °F -  
Max Temperature 62 °F 59 °F 74 °F (1950)
Min Temperature 46 °F 38 °F 21 °F (1969)
Degree Days  
Heating Degree Days 11    
Growing Degree Days 4 (Base 50)    
Moisture  
Dew Point 40 °F    
Average Humidity 64    
Maximum Humidity 83    
Minimum Humidity 39    
Precipitation  
Precipitation 0.00 in - - ()
Sea Level Pressure  
Sea Level Pressure 30.22 in    
Wind  
Wind Speed 7 mph (NNW)    
Max Wind Speed 14 mph    
Max Gust Speed -    
Visibility 10 miles    
Events      
Averages and records for this station are not official NWS values.
T = Trace of Precipitation, MM = Missing Value Source: NWS Daily Summary

Daily Weather History Graph

Daily Weather History Graph

Search for Another Location

Airport or City:

Trip Planner

Search our weather history database for the weather conditions in past years. The results will help you decide how hot, cold, wet, or windy it might be!

Date:

Astronomy

Feb. 15, 2012 Rise Set
Actual Time 6:52 AM EST 5:48 PM EST
Civil Twilight 6:26 AM EST 6:14 PM EST
Nautical Twilight 5:56 AM EST 6:43 PM EST
Astronomical Twilight 5:27 AM EST 7:13 PM EST
Moon 1:36 AM EST (2/15) 11:48 AM EST (2/15)
Length of Visible Light 11h 47m
Length of Day
10h 55m
Last Quarter, 39% of the Moon is Illuminated
Feb 15
Last Quarter
Feb 21
New
Feb 29
First Quarter
Mar 8
Full
Mar 14
Last Quarter

Hourly Weather History & Observations

Time (EST) Temp. Windchill Dew Point Humidity Pressure Visibility Wind Dir Wind Speed Gust Speed Precip Events Conditions
12:56 AM 51.1 °F - 42.1 °F 71% 30.11 in - West 4.6 mph - N/A   Overcast
1:56 AM 48.9 °F - 44.1 °F 83% 30.11 in - West 5.8 mph - N/A   Scattered Clouds
2:56 AM 50.0 °F - 39.9 °F 68% 30.10 in - SW 4.6 mph - N/A   Mostly Cloudy
3:56 AM 50.0 °F - 37.9 °F 63% 30.11 in - West 4.6 mph - N/A   Partly Cloudy
4:56 AM 48.9 °F - 39.9 °F 71% 30.13 in - West 6.9 mph - N/A   Mostly Cloudy
5:56 AM 46.9 °F - 41.0 °F 80% 30.15 in - SW 8.1 mph - N/A   Clear
6:56 AM 46.0 °F 42.5 °F 39.9 °F 79% 30.17 in - WSW 6.9 mph - N/A   Clear
7:56 AM 50.0 °F - 42.1 °F 74% 30.20 in - West 5.8 mph - N/A   Clear
8:56 AM 54.0 °F - 41.0 °F 62% 30.22 in - WNW 9.2 mph - N/A   Clear
9:56 AM 55.9 °F - 39.9 °F 55% 30.23 in - NW 12.7 mph - N/A   Clear
10:56 AM 57.9 °F - 39.0 °F 49% 30.24 in - NNW 11.5 mph - N/A   Clear
11:56 AM 59.0 °F - 39.0 °F 48% 30.24 in - North 11.5 mph - N/A   Clear
12:56 PM 60.1 °F - 37.9 °F 44% 30.23 in - NNW 13.8 mph - N/A   Clear
1:56 PM 61.0 °F - 37.9 °F 42% 30.23 in 10.0 mi NNW 10.4 mph - N/A   Clear
2:56 PM 61.0 °F - 37.0 °F 41% 30.24 in 10.0 mi NNE 9.2 mph - N/A   Clear
3:56 PM 62.1 °F - 37.0 °F 39% 30.24 in 10.0 mi NNE 6.9 mph - N/A   Clear
4:56 PM 54.0 °F - 41.0 °F 62% 30.25 in 10.0 mi East 9.2 mph - N/A   Clear
5:56 PM 50.0 °F - 41.0 °F 71% 30.27 in 10.0 mi East 8.1 mph - N/A   Clear
6:56 PM 48.9 °F - 41.0 °F 74% 30.29 in 10.0 mi East 6.9 mph - N/A   Clear
7:56 PM 48.9 °F - 41.0 °F 74% 30.31 in 10.0 mi ENE 6.9 mph - N/A   Clear
8:56 PM 48.9 °F - 41.0 °F 74% 30.31 in 10.0 mi East 8.1 mph - N/A   Clear
9:56 PM 48.9 °F - 41.0 °F 74% 30.32 in 10.0 mi East 5.8 mph - N/A   Clear
10:56 PM 48.9 °F - 41.0 °F 74% 30.32 in 10.0 mi ENE 9.2 mph - N/A   Clear
11:56 PM 48.9 °F - 41.0 °F 74% 30.32 in 10.0 mi ENE 5.8 mph - N/A   Clear